Timeline UpdatesTrip UpdatesNews PostsPvt PostsTravel TipsAdmin PostsConv PostsFollowed PostsChat RequestsBlog PostsPNR Posts

Disclaimer
Search
 
 
Wed Apr 23, 2014 18:58:51 ISTHomeTrainsΣChainsAtlasPNRForumGalleryNewsFAQTripsMembersLoginFeedback
No Recent News for this Train
Other Trains in the News **new
Latest...
.
Fri Dec 13, 2013 (03:40PM)
⇐ Return Journey: Train# 12833

12834/Howrah Ahmedabad SF Express

Jul 01 2013 (4:29PM)
Change Departure Station:
Change Arrival Station:
Post a Train Travel TipPost a Train Travel Tip **new
Post a Comment/Question/Picture/VideoPost a Comment/Question/Picture/Video
Pantry/Catering
✓ Pantry Car Avbl
✓ Catering Avbl
RSA - Rake Sharing
Rake/Coach Composition
LOCO(SRC WAP 4E)-SLR-GEN-S1-S2-S3-S4-S5-S6-S7-S8-S9-S10-S11-S12-PC-S13-B1-B2-A1-A2-GEN-SLR
Loco
Loco: SRC WAP 4 ... Entry# 289462
News    PNR    Forum    Time-Table    Availability    Fare Chart    Map    Arr/Dep History    Trips    Gallery    ΣChains    X/O    Timeline    
Travel Time: 3h 2m    4 halts    Distance: 170 km    Avg Speed: 56 km/hr
Type: SuperFast
Zone: SER/South Eastern
Departs @ 09:58 (Avg 26m late)
Platform# 3
SMTWTFS
Bharuch Junction/BH 
Arrives @ 13:00 (Avg 21m late)
Platform# 6
SMTWTFS
Ahmedabad Junction/ADI 

4 halts. 34 intermediate Stations between Bharuch Junction and Ahmedabad Junction

Show ALL intermediate Stations  Show Old Time-Table

#CodeStation NameX/OArrivesAvgDepartsAvgHaltPFDay#KmSpeedElevZoneAddress
1HWHKolkata Howrah Junction (23)  -23:55+4221-1917.86210mERHowrah 711101, West Bengal
2MCAMecheda (6)  00:51+900:52+161m--2-1859.63410mSERdist - purba Medinipur, West Bengal
3PKUPanskura Junction (6)X  01:14+701:15+81m--2-1847.1599mSERPanskura, West Bengal
4KGPKharagpur Junction (10)  02:00+302:05+55m32-1802.87742mSERKharagpur, West Bengal
5TATATatanagar Junction (5)XO  03:50+1703:55+175m--2-1667.768164mSER91-657-2423026, Jharkhand
6CKPChakradharpur (3)  04:50+1704:57+187m12-1605.478235mSERChakradharpur (West Singhbhum), Jharkhand
7ROURourkela Junction (5)X  06:15+2406:30+2415m32-1504.462198mSERRourkela, Odisha
8GPRaj Gangpur (3)  06:59+2507:00+261m12-1474.672237mSERRaj Ganpur, Odisha
9BMBBamra (3)  07:29+2207:30+221m--2-1439.958259mSERBamra PH : 06642-229268, Odisha
10JSGJharsuguda Junction (5)X  08:08+1508:10+172m--2-1403.478236mSERJharsuguda, Odisha
11BRJNBrajrajnagar  08:19+2608:20+271m--2-1391.759212mSECRBrajrajnagar, Odisha
12BPHBelpahar  08:29+2708:30+291m--2-1382.885235mSECRBelpahar, Odisha
13RIGRaigarh (3)  09:06+3009:11+295m--2-1331.889220mSECRRaigarh, Chhattisgarh
14KHSKharsia  09:34+3909:35+401m--2-1297.886259mSECRNational Highway 200, Chhattisgarh
15BUABaradwarX  09:56+4709:57+481m--2-1267.555256mSECRJanjgir-Champa, Chhattisgarh
16CPHChampa Junction (3)X  10:14+4910:19+475m32-1252.065264mSECRNational Highway 200 (07819-245767), Chhattisgarh
17NIANailaX  10:29+4810:30+491m--2-1241.269273mSECRJanjgir, Chhattisgarh
18AKTAkaltara (4)X  10:43+4810:44+491m--2-1226.229284mSECRDist. Janjgir Champa, Chhattisgarh
19BSPBilaspur Junction (8)X  11:40+2111:55+2815m22-1199.075271mSECRBilaspur, Chhattisgarh
20BYTBhatapara (4)X  12:32+2912:33+291m22-1152.882270mSECRBanjari Road, Chhattisgarh
21TLDTilda (3)X  12:52+2912:53+291m--2-1126.855291mSECRBanjari Rd, Chhattisgarh
22RRaipur Junction (6)X  13:35+3013:45+2910m52-1088.676297mSECRRaipur, Chhattisgarh
23BPHBBhilai Power House (3)XO  14:07+1614:08+171m12-1060.617312mSECRBhilai, Chhattisgarh
24DURGDurg Junction (6)X  14:40+1614:45+175m42-1051.687299mSECRPh: 91-788-2322059, Chhattisgarh
25RJNRaj Nandgaon (3)  15:06+2415:08+242m--2-1021.282313mSECRRajnandgaon, Chhattisgarh
26DGGDongargarh (2)  15:31+2615:32+281m12-989.674353mSECRDongargarh, Chhattisgarh
27AGNAmgaon (2)X  16:13+3216:14+331m--2-939.247317mSECRGondia, Maharashtra
28GGondia Junction (7)X  16:43+2516:48+245m22-916.488316mSECRGondia 441601, Maharashtra
29TROTirora (3)  17:08+2917:09+291m--2-887.168282mSECRDist Gondiya, Maharashtra
30TMRTumsar Road (3)  17:27+2717:28+281m--2-866.767267mSECRBhandara, Maharashtra
31BRDBhandara Road (2)X  17:44+2717:45+281m22-848.890266mSECRState Highway 252, Maharashtra
32KPKamptee (3)X  18:17+2718:18+271m--2-800.820290mSECRMH 441001, Maharashtra
33NGPNagpur Junction (9)X  19:00+1819:10+2010m32-786.520314mCRNagpur 440001, Maharashtra
34AJNIAjni (3)X  19:19+2419:20+251m32-783.571310mCRNagpur 440003, Maharashtra
35WRWardha JunctionX  20:24+2120:27+213m12-707.681289mCRWardha 442001, Maharashtra
36PLOPulgaon Junction (3)  20:49+2420:50+251m22-678.167273mCRPulgaon, Maharashtra
37DMNDhamangaon (2)  21:08+2421:09+261m--2-658.166300mCRDhamangaon, Maharashtra
38CNDChandur (2)X  21:24+2521:25+261m--2-641.538331mCRAmravati Distt, Maharashtra
39BDBadnera Junction (4)X  22:10+2122:15+225m12-612.786335mCRBadnera (Amravati) 444701, Maharashtra
40MZRMurtizapur (3)X  22:44+2822:45+291m--2-570.974303mCRMurtajapur, Maharashtra
41AKAkola Junction (7)  23:15+3023:20+305m12-533.793284mCRAkola-444001, Maharashtra
42SEGShegaon (2)  23:44+3523:45+351m22-496.562276mCRShegaon 444203, Maharashtra
43JMJalamb Junction (3)  23:57+3323:58+351m12-484.267259mCRJalamb, Maharashtra
44NNNandura  00:09+3500:10+401m13-472.070267mCRNandura, Maharashtra
45MKUMalkapur (2)  00:34+3900:35+401m23-444.050252mCRMalkapur, Maharashtra
46BSLBhusaval Junction (8)XO  01:35+3501:45+4210m43-394.237208mCRBhusaval 425201, Maharashtra
47JLJalgaon Junction (4)X  02:24+2602:25+301m23-370.151213mCRJalgaon 425001, Maharashtra
48DXGDharangaon  03:00+3903:01+401m13-340.351217mWRDharangaon, Maharashtra
49ANAmalner (1)  03:30+3503:33+353m13-315.473188mWRAmalner, Maharashtra
50SNKSindkheda (1)  04:07+3804:08+391m13-273.945178mWRState Highway 11, Maharashtra
51DDEDondaicha (2)X  04:34+3404:35+361m23-254.549163mWRDondaicha, Maharashtra
52NDBNandurbar (3)  05:17+2705:25+288m13-220.149203mWRNandurbar, Maharashtra
53NWUNavapur (2)  06:36+1906:37+231m--3-162.254124mWRNavapur, Gujarat
54VYAVyara (2)  07:24+1907:25+201m13-120.25690mWRVyara, Gujarat
55MIDMadhi (1)X  07:41+2007:42+211m13-105.35645mWRMadhi, Gujarat
56BIYBardoli (2)X  07:58+2307:59+231m--3-90.53635mWRNear Bardoli Sugar Factory Bardoli, Gujarat
57UDNUdhna Junction (3)XO  08:44+1508:45+191m13-63.31416mWRUdhna 394210, Gujarat
58STSurat (4)X  09:02+1509:12+1510m23-59.37919mWRSurat 395001, Gujarat
59BH»Bharuch Junction (5)»X  09:57+2409:58+261m330.07419mWRBharuch, Gujarat
60BRCVadodara Junction (7)X  10:55+3011:00+305m3370.56936mWRVadodara, Gujarat
61ANNDAnand Junction (6)  11:31+3011:32+321m23106.35044mWRAnand, Gujarat
62NDNadiad Junction (4)X  11:54+2711:55+281m--3124.85737mWRNadiad, Gujarat
63MANManinagar (2)X  12:40+2112:41+221m13167.21050mWRAhmadabad, Gujarat
64ADI•Ahmedabad Junction (12)•  13:00+21-63170.3-51mWRAhmedabad, Gujarat
Scroll to Top
Scroll to Bottom